Weather History for Buffalo, SD

Change the Weather History Date:

Thursday, November 22, 2012

  Actual Average Record
Temperature  
Mean Temperature 28 °F 28 °F  
Max Temperature 45 °F 39 °F 64 °F (2002)
Min Temperature 10 °F 18 °F -5 °F (2010)
Degree Days  
Heating Degree Days 37 37  
Month to date heating degree days 603 686  
Since 1 July heating degree days 1415 1587  
Cooling Degree Days 0 0  
Month to date cooling degree days 0 0  
Year to date cooling degree days 853 513  
Moisture  
Dew Point 20 °F    
Average Humidity 70    
Maximum Humidity 85    
Minimum Humidity 54    
Precipitation  
Precipitation 0.00 in 0.00 in 0.16 in (2010)
Month to date precipitation 0.11 0.30  
Year to date precipitation 8.28 14.22  
Sea Level Pressure  
Sea Level Pressure 30.15 in    
Wind  
Wind Speed 24 mph (NW)    
Max Wind Speed 46 mph    
Max Gust Speed 53 mph    
T = Trace of Precipitation, MM = Missing Value Source: NWS Daily Summary

Daily Weather History Graph

Daily Weather History Graph

Search for Another Location

Airport:

Trip Planner

Search our weather history database for the weather conditions in past years. The results will help you decide how hot, cold, wet, or windy it might be!

Date:

Astronomy

Nov. 22, 2012 Rise Set
Actual Time 7:03 AM MST 4:16 PM MST
Civil Twilight 6:30 AM MST 4:49 PM MST
Nautical Twilight 5:54 AM MST 5:26 PM MST
Astronomical Twilight 5:18 AM MST 6:01 PM MST
Moon 1:17 PM MST (11/22) 1:10 AM MST (11/22)
Length of Visible Light 10h 18m
Length of Day
9h 13m
Waxing Gibbous, 72% of the Moon is Illuminated
Nov 22
Waxing Gibbous
Nov 28
Full
Dec 6
Last Quarter
Dec 13
New
Dec 19
First Quarter

Hourly Weather History & Observations

Time (MST) Temp. Windchill Dew Point Humidity Pressure Visibility Wind Dir Wind Speed Gust Speed Precip Events Conditions
12:56 AM 37.9 °F 30.0 °F 33.1 °F 83% 29.75 in - West 12.7 mph - N/A   Unknown
1:56 AM 44.1 °F 35.7 °F 35.1 °F 71% 29.75 in - WNW 20.7 mph - N/A   Unknown
2:56 AM 44.1 °F 33.7 °F 32.0 °F 63% 29.76 in - NW 32.2 mph 40.3 mph N/A   Unknown
3:56 AM 41.0 °F 29.8 °F 26.1 °F 55% 29.82 in - NW 29.9 mph 35.7 mph N/A   Unknown
4:56 AM 39.0 °F 27.6 °F 25.0 °F 57% 29.87 in - WNW 27.6 mph 34.5 mph N/A   Unknown
5:56 AM 37.9 °F 28.2 °F 27.0 °F 65% 29.92 in - WNW 18.4 mph - N/A   Unknown
6:56 AM 34.0 °F 23.8 °F 27.0 °F 75% 29.96 in - WNW 16.1 mph - N/A   Unknown
7:56 AM 32.0 °F 21.2 °F 27.0 °F 82% 29.99 in - WNW 16.1 mph - N/A   Unknown
8:56 AM 37.9 °F 28.2 °F 28.0 °F 68% 30.01 in - WNW 18.4 mph - N/A   Unknown
9:56 AM 37.9 °F 28.2 °F 28.9 °F 70% 30.04 in - NNW 18.4 mph - N/A   Unknown
10:56 AM 37.9 °F 25.9 °F 26.1 °F 62% 30.07 in - NW 28.8 mph 38.0 mph N/A   Unknown
11:56 AM 37.9 °F 26.3 °F 27.0 °F 65% 30.10 in - WNW 26.5 mph 33.4 mph N/A   Unknown
12:56 PM 37.0 °F 23.3 °F 25.0 °F 62% 30.13 in - WNW 36.8 mph 46.0 mph N/A   Unknown
1:56 PM 27.0 °F 10.0 °F 19.9 °F 75% 30.18 in - NW 33.4 mph 44.9 mph N/A   Unknown
2:56 PM 24.1 °F 5.6 °F 18.0 °F 77% 30.25 in - NW 35.7 mph 42.6 mph N/A   Unknown
3:56 PM 19.9 °F 0.2 °F 9.0 °F 62% 30.31 in - NW 34.5 mph 43.7 mph N/A   Unknown
4:56 PM 19.0 °F -1.3 °F 9.0 °F 65% 30.37 in - NW 35.7 mph 46.0 mph N/A   Unknown
5:56 PM 17.1 °F -1.7 °F 9.0 °F 71% 30.40 in - NW 26.5 mph 34.5 mph N/A   Unknown
6:56 PM 17.1 °F -1.7 °F 9.0 °F 71% 30.44 in - NW 26.5 mph - N/A   Unknown
7:56 PM 15.1 °F -3.3 °F 8.1 °F 74% 30.48 in - NW 23.0 mph 31.1 mph N/A   Unknown
8:56 PM 15.1 °F -3.7 °F 8.1 °F 74% 30.49 in - NW 24.2 mph 28.8 mph N/A   Unknown
9:56 PM 12.9 °F -6.5 °F 8.1 °F 81% 30.51 in - WNW 24.2 mph - N/A   Unknown
10:56 PM 12.0 °F -1.3 °F 7.0 °F 80% 30.53 in - WNW 10.4 mph - N/A   Unknown
11:56 PM 10.9 °F -2.6 °F 6.1 °F 81% 30.53 in - WNW 10.4 mph - N/A   Unknown